Skip Navigation Links weather.gov 
NOAA logo-Select to go to the NOAA homepage NDBC Title GraphicClick to go to NDBC home page   Select to go to the NWS homepage
Home About Us Contact Us
 
 
    
    Station List

 Data Access
    Mobile Access
    Interactive Maps
         All Stations
         DART®
    Obs Search
    Ship Obs Report
    BuoyCAMs
    TAO
    DODS
    OceanSITES
    HF Radar
    OSMC
    Dial-A-Buoy
    RSS Feeds Image indicating link to RSS feed access page
    Web Widget
    Web Data Guide
    Maintenance Schedule
    Station Status Report

 Program Info
    TAO
    DART®
    IOOS®

 Publications
    NDBC PEA
    NDBC FONSI
    NDBC DQC Handbook

 Visitor Information
 
USA.gov is the U.S. government's official web portal to all federal, state and local government web resources and services.

Station CDXA2 - Cape Decision MXAK, AK Image indicating link to RSS feed of recent meteorological observations for station CDXA2

Owned and maintained by Marine Exchange of Alaska
C-MAN Station
56.001 N 134.136 W (56°0'5" N 134°8'10" W)

Site elevation: 15.2 m above mean sea level
Air temp height: 9.1 m above site elevation
Anemometer height: 9.1 m above site elevation
Barometer elevation: 24.4 m above mean sea level

Search And Rescue (SAR) Data

Meteorological Observations from Nearby Stations and Ships Image indicating link to RSS feed of recent meteorological observations near station CDXA2

Large icon indicates selected station.
yellow diamond Stations with recent data
red diamond Stations with no data in last 8 hours
     (24 hours for tsunami stations)


Conditions at CDXA2 as of
(2:32 am AKST)
1132 GMT on 01/20/2022:
     

Click on the graph icon in the table below to see a time series plot of the last five days of that observation.

5-day plot - Wind Direction Wind Direction (WDIR): W ( 280 deg true )
5-day plot - Wind Speed Wind Speed (WSPD): 8 kts
5-day plot - Wind Gust Wind Gust (GST): 11 kts
5-day plot - Atmospheric Pressure Atmospheric Pressure (PRES): 29.35 in
5-day plot - Air Temperature Air Temperature (ATMP): 36.0 °F
5-day plot - Wind Chill Wind Chill (CHILL): 29.1 °F
5-day plot - Wind Speed at 10 Meters Wind Speed at 10 meters (WSPD10M): 8 kts
5-day plot - Wind Speed at 10 Meters Wind Speed at 20 meters (WSPD20M): 10 kts
5-day plot - Wind Speed, Wind Gust and Atmospheric Pressure Combined plot of Wind Speed, Gust, and Air Pressure
Previous observations
5-day plot - Wind Direction 5-day plot - Wind Speed 5-day plot - Wind Gust 5-day plot - Wave Height 5-day plot - Dominant Wave Period 5-day plot - Average Period 5-day plot - Mean Wave Direction 5-day plot - Atmospheric Pressure 5-day plot - Pressure Tendency 5-day plot - Air Temperature 5-day plot - Water Temperature 5-day plot - Dew Point 5-day plot - Salinity 5-day plot - Visibility 5-day plot - Tide (above MLLW)
MM DD TIME
(AKST)
WDIR WSPD
kts
GST
kts
WVHT
ft
DPD
sec
APD
sec
MWD PRES
in
PTDY
in
ATMP
°F
WTMP
°F
DEWP
°F
SAL
psu
VIS
nmi
TIDE
ft
0120 2:22 amWNW 5 8----29.34- 35.8-----
0120 2:12 am W 8 13----29.33- 36.0-----
0120 2:02 amWNW 7 12----29.31- 35.8-----
0120 1:52 amWNW 12 18----29.30- 35.6-----
0120 1:42 amWNW 14 18----29.29- 35.8-----
0120 1:32 amWNW 10 16----29.28- 36.7-----
0120 1:22 amWNW 7 13----29.28- 36.9-----
0120 1:12 amWNW 8 14----29.27- 37.2-----
0120 1:02 amWNW 6 13----29.26- 37.6-----
012012:52 amWNW 3 10----29.25- 37.9-----
012012:42 amWNW 2 4----29.24- 38.5-----
012012:22 am NE 7 14----29.22- 38.3-----
012012:12 am NE 2 5----29.22- 38.5-----
012012:02 amNNW 2 6----29.22- 38.3-----
011911:52 pm W 4 8----29.21- 38.1-----
011911:42 pmNNE 7 16----29.20- 37.9-----
011911:32 pmNNE 10 17----29.20- 37.9-----
011911:22 pm NE 9 17----29.20- 37.9-----
011911:12 pm NE 8 16----29.19- 37.9-----
011911:02 pm NE 9 16----29.19- 37.9-----
011910:52 pm NE 7 17----29.19- 37.9-----
011910:42 pm NE 10 18----29.18- 37.8-----
011910:32 pm NE 10 17----29.18- 37.8-----
011910:22 pm NE 10 20----29.18- 37.8-----
011910:12 pmNNE 12 20----29.18- 37.8-----
011910:02 pm NE 11 22----29.18- 37.8-----
0119 9:52 pm NE 12 21----29.18- 37.8-----
0119 9:42 pm NE 11 21----29.18- 37.8-----
0119 9:32 pm NE 11 20----29.19- 38.1-----
0119 9:22 pmNNE 11 21----29.19- 37.9-----
0119 9:12 pm NE 11 19----29.18- 37.9-----
0119 9:02 pm NE 13 21----29.19- 38.1-----
0119 8:52 pm NE 13 23----29.20- 38.1-----
0119 8:42 pm NE 13 23----29.21- 38.1-----
0119 8:32 pmNNE 13 22----29.21- 38.1-----
0119 8:22 pmNNE 13 21----29.21- 38.1-----
0119 8:12 pm NE 13 20----29.22- 38.1-----
0119 8:02 pm NE 13 22----29.22- 38.1-----
0119 7:52 pm NE 13 24----29.23- 37.9-----
0119 7:42 pm NE 13 22----29.23- 38.1-----
0119 7:32 pm NE 13 24----29.24- 38.1-----
0119 7:22 pm NE 13 21----29.24- 38.1-----
0119 7:12 pm NE 13 21----29.24- 38.3-----
0119 7:02 pm NE 13 24----29.25- 38.1-----
0119 6:52 pm NE 13 23----29.25- 38.1-----
0119 6:42 pm NE 13 22----29.26- 38.3-----
0119 6:32 pm NE 13 21----29.26- 38.3-----
0119 6:22 pm NE 13 23----29.27- 38.3-----
0119 6:12 pm NE 14 22----29.27- 38.3-----
0119 6:02 pm NE 15 21----29.27- 38.3-----
0119 5:52 pmENE 16 24----29.27- 38.3-----
0119 5:42 pmENE 17 27----29.28- 38.3-----
0119 5:32 pmENE 18 26----29.28- 38.3-----
0119 5:22 pmENE 18 25----29.28- 38.1-----
0119 5:12 pmENE 20 26----29.29- 38.3-----
0119 5:02 pmENE 20 26----29.30- 38.3-----
0119 4:52 pmENE 21 27----29.31- 38.1-----
0119 4:42 pmENE 22 28----29.32- 38.1-----
0119 4:32 pmENE 22 30----29.32- 37.9-----
0119 4:22 pmENE 23 28----29.33- 37.9-----
0119 4:12 pmENE 23 28----29.34- 37.9-----
0119 4:02 pmENE 23 28----29.34- 37.9-----
0119 3:52 pmENE 23 27------------
0119 3:42 pmENE 22 27----29.35- 37.9-----
0119 3:32 pmENE 21 25----29.36- 37.9-----
0119 3:22 pmENE 20 25----29.38- 37.8-----
0119 3:12 pmENE 18 25----29.39- 37.9-----
0119 2:52 pmENE 18 25----29.40- 37.9-----
0119 2:42 pmENE 18 23----29.41- 37.9-----
0119 2:32 pmENE 17 22----29.41- 37.8-----
0119 2:22 pmENE 17 26----29.42- 37.8-----
0119 2:12 pmENE 19 23----29.42- 37.8-----
0119 2:02 pmENE 19 24----29.43- 37.6-----
0119 1:52 pmENE 20 25----29.43- 37.8-----
0119 1:42 pmENE 20 24----29.44- 37.9-----
0119 1:32 pmENE 21 25----29.44- 37.9-----
0119 1:22 pmENE 21 24----29.45- 37.8-----
0119 1:12 pmENE 21 25----29.45- 37.8-----
0119 1:02 pmENE 21 24----29.46- 37.8-----
011912:52 pmENE 22 25----29.47- 37.8-----
011912:42 pmENE 21 25----29.47- 37.9-----
011912:32 pmENE 21 24----29.48- 37.6-----
011912:22 pmENE 20 23----29.49- 37.4-----
011912:12 pmENE 19 23----29.50- 37.2-----
011912:02 pmENE 19 24----29.50- 37.0-----
011911:52 amENE 19 24----29.50- 36.9-----
011911:42 amENE 20 25----29.50- 36.7-----
011911:32 amENE 21 27----29.49- 36.7-----
011911:22 amENE 23 29----29.49- 36.5-----
011911:12 amENE 25 30----29.49- 36.3-----
011911:02 amENE 26 32----29.50- 36.1-----
011910:52 amENE 28 32----29.51- 36.1-----
011910:42 amENE 28 32----29.51- 36.0-----
011910:32 amENE 28 37----29.52- 35.8-----
011910:22 amENE 28 33----29.52- 35.6-----
011910:12 amENE 28 33----29.53- 35.6-----
011910:02 amENE 27 33----29.54- 35.2-----
0119 9:52 amENE 26 35----29.55- 35.4-----
0119 9:42 amENE 25 30----29.56- 35.1-----
0119 9:32 amENE 25 32----29.56- 34.9-----
0119 9:22 amENE 25 31----29.57- 34.9-----
0119 9:12 amENE 25 30----29.57- 34.7-----
0119 9:02 amENE 26 31----29.58- 34.7-----
0119 8:52 amENE 27 35----29.58- 34.9-----
0119 8:42 amENE 26 31----29.59- 34.9-----
0119 8:32 amENE 25 31----29.60- 34.9-----
0119 8:22 amENE 29 33----29.59- 34.7-----
0119 8:12 amENE 29 35----29.59- 34.7-----
0119 8:02 amENE 29 33----29.59- 34.7-----
0119 7:52 amENE 29 33----29.60- 34.7-----
0119 7:42 amENE 32 42----29.60- 34.0-----
0119 7:32 amENE 31 35----29.62- 34.2-----
0119 7:22 amENE 30 34----29.62- 34.3-----
0119 7:12 amENE 29 33----29.62- 34.2-----
0119 7:02 amENE 29 36----29.63- 34.0-----
0119 6:52 amENE 29 33----29.64- 34.2-----
0119 6:42 amENE 28 32----29.65- 34.2-----
0119 6:32 amENE 27 32----29.66- 34.3-----
0119 6:22 amENE 26 32----29.67- 34.0-----
0119 6:12 amENE 26 29----29.68- 33.8-----
0119 6:02 amENE 26 31----29.68- 33.8-----
0119 5:52 amENE 26 32----29.69- 33.4-----
0119 5:42 amENE 26 30----29.70- 33.6-----
0119 5:32 amENE 26 30----29.71- 33.8-----
0119 5:22 amENE 25 29----29.71- 33.8-----
0119 5:12 amENE 27 30----29.71- 33.6-----
0119 5:02 amENE 27 30----29.72- 33.4-----
0119 4:52 amENE 26 29----29.72- 33.1-----
0119 4:42 amENE 26 28----29.74- 33.1-----
0119 4:32 amENE 27 35----29.73- 33.1-----
0119 4:22 amENE 26 31----29.75- 32.9-----
0119 4:12 amENE 26 29----29.75- 33.4-----
0119 4:02 amENE 26 31----29.76- 33.1-----
0119 3:52 amENE 26 30----29.77- 33.4-----
0119 3:42 amENE 25 28----29.77- 33.8-----
0119 3:32 amENE 22 28----29.78- 34.2-----
0119 3:22 amENE 21 27----29.79- 34.3-----
0119 3:12 amENE 19 31----29.79- 34.5-----
0119 3:02 amENE 22 30----29.79- 34.5-----
0119 2:52 amENE 24 28----29.80- 34.2-----
0119 2:42 amENE 25 33----29.79- 34.0-----
0119 2:32 amENE 25 30----29.80- 34.0-----
0119 2:22 amENE 25 30----29.81- 34.2-----
0119 2:12 amENE 24 29----29.81- 34.9-----
0119 2:02 amENE 25 32----29.81- 35.1-----
0119 1:52 amENE 23 28----29.82- 35.6-----

Description of Measurements

Links which are specific to this station are listed below:

Real Time Data in tabular form for the last forty-five days.

Historical Data & Climatic Summaries for quality controlled data for the current month, previous months, and previous years.